Time,TemperatureF,DewpointF,PressureIn,WindDirection,WindDirectionDegrees,WindSpeedMPH,WindSpeedGustMPH,Humidity,HourlyPrecipIn,Conditions,Clouds,dailyrainin,SoftwareType,DateUTC
2013-01-31 06:02:00,22.0,19.0,-100.00,East,85,1.0,3.0,85,-99.99,,,-99.99,,2013-01-31 14:02:00,
2013-01-31 06:11:00,22.0,19.0,-100.00,East,95,1.0,2.0,85,-99.99,,,-99.99,,2013-01-31 14:11:00,
2013-01-31 06:21:00,22.0,18.0,-100.00,SE,140,1.0,3.0,85,-99.99,,,-99.99,,2013-01-31 14:21:00,
2013-01-31 06:31:00,22.0,18.0,-100.00,SE,140,1.0,3.0,85,-99.99,,,-99.99,,2013-01-31 14:31:00,
2013-01-31 06:40:00,22.0,18.0,-100.00,East,90,0.0,3.0,85,-99.99,,,-99.99,,2013-01-31 14:40:00,
2013-01-31 06:42:00,22.0,18.0,-100.00,ESE,110,0.0,3.0,85,-99.99,,,-99.99,,2013-01-31 14:42:00,
2013-01-31 06:52:00,22.0,18.0,-100.00,SE,130,2.0,2.0,85,-99.99,,,-99.99,,2013-01-31 14:52:00,
2013-01-31 07:02:00,22.0,18.0,-100.00,SE,130,2.0,2.0,85,-99.99,,,-99.99,,2013-01-31 15:02:00,
2013-01-31 07:11:00,22.0,18.0,-100.00,East,90,0.0,3.0,85,-99.99,,,-99.99,,2013-01-31 15:11:00,
2013-01-31 07:22:00,22.0,18.0,-100.00,East,90,0.0,3.0,85,-99.99,,,-99.99,,2013-01-31 15:22:00,
2013-01-31 07:32:00,22.0,18.0,-100.00,East,90,0.0,3.0,85,-99.99,,,-99.99,,2013-01-31 15:32:00,
2013-01-31 07:52:00,21.0,18.0,-100.00,East,80,0.0,2.0,85,-99.99,,,-99.99,,2013-01-31 15:52:00,
2013-01-31 08:03:00,21.0,18.0,-100.00,East,80,0.0,2.0,85,-99.99,,,-99.99,,2013-01-31 16:03:00,
2013-01-31 08:21:00,22.0,18.0,-100.00,SE,130,1.0,3.0,85,-99.99,,,-99.99,,2013-01-31 16:21:00,
2013-01-31 08:32:00,22.0,18.0,-100.00,SE,130,1.0,3.0,85,-99.99,,,-99.99,,2013-01-31 16:32:00,
2013-01-31 08:40:00,26.0,22.0,-100.00,ESE,120,1.0,1.0,85,-99.99,,,-99.99,,2013-01-31 16:40:00,
2013-01-31 08:42:00,22.0,18.0,-100.00,SE,130,1.0,3.0,85,-99.99,,,-99.99,,2013-01-31 16:42:00,
2013-01-31 08:51:00,22.0,18.0,-100.00,SE,130,1.0,3.0,85,-99.99,,,-99.99,,2013-01-31 16:51:00,
2013-01-31 09:12:00,26.0,22.0,-100.00,ESE,120,1.0,1.0,85,-99.99,,,-99.99,,2013-01-31 17:12:00,
2013-01-31 09:22:00,26.0,22.0,-100.00,ESE,120,1.0,1.0,85,-99.99,,,-99.99,,2013-01-31 17:22:00,
2013-01-31 09:31:00,26.0,22.0,-100.00,ESE,120,1.0,1.0,85,-99.99,,,-99.99,,2013-01-31 17:31:00,
2013-01-31 09:53:00,31.0,27.0,-100.00,SE,125,0.0,3.0,85,-99.99,,,-99.99,,2013-01-31 17:53:00,
2013-01-31 10:02:00,31.0,27.0,-100.00,SE,125,0.0,3.0,85,-99.99,,,-99.99,,2013-01-31 18:02:00,
2013-01-31 10:12:00,33.0,29.0,-100.00,WNW,300,3.0,4.0,84,-99.99,,,-99.99,,2013-01-31 18:12:00,
2013-01-31 10:21:00,34.0,28.0,-100.00,WNW,300,1.0,3.0,78,-99.99,,,-99.99,,2013-01-31 18:21:00,
2013-01-31 10:32:00,34.0,28.0,-100.00,WNW,300,1.0,3.0,78,-99.99,,,-99.99,,2013-01-31 18:32:00,
2013-01-31 10:42:00,35.0,26.0,-100.00,WNW,300,1.0,3.0,70,-99.99,,,-99.99,,2013-01-31 18:42:00,
2013-01-31 10:52:00,36.0,26.0,-100.00,WNW,300,2.0,4.0,67,-99.99,,,-99.99,,2013-01-31 18:52:00,
2013-01-31 11:02:00,36.0,26.0,-100.00,WNW,300,2.0,4.0,67,-99.99,,,-99.99,,2013-01-31 19:02:00,
2013-01-31 11:11:00,36.0,25.0,-100.00,NW,305,4.0,6.0,63,-99.99,,,-99.99,,2013-01-31 19:11:00,
2013-01-31 11:21:00,37.0,24.0,-100.00,NW,305,2.0,5.0,59,-99.99,,,-99.99,,2013-01-31 19:21:00,
2013-01-31 11:32:00,37.0,24.0,-100.00,NW,305,2.0,5.0,59,-99.99,,,-99.99,,2013-01-31 19:32:00,
2013-01-31 11:42:00,39.0,25.0,-100.00,WNW,290,3.0,6.0,56,-99.99,,,-99.99,,2013-01-31 19:42:00,
2013-01-31 11:51:00,41.0,25.0,-100.00,NW,305,3.0,4.0,53,-99.99,,,-99.99,,2013-01-31 19:51:00,
2013-01-31 12:02:00,41.0,25.0,-100.00,NW,305,3.0,4.0,53,-99.99,,,-99.99,,2013-01-31 20:02:00,
2013-01-31 12:10:00,40.0,25.0,-100.00,WNW,300,4.0,6.0,54,-99.99,,,-99.99,,2013-01-31 20:10:00,
2013-01-31 12:11:00,40.0,23.0,-100.00,NW,305,3.0,6.0,51,-99.99,,,-99.99,,2013-01-31 20:11:00,
2013-01-31 12:21:00,40.0,24.0,-100.00,WNW,300,3.0,6.0,53,-99.99,,,-99.99,,2013-01-31 20:21:00,
2013-01-31 12:31:00,40.0,24.0,-100.00,WNW,300,3.0,6.0,53,-99.99,,,-99.99,,2013-01-31 20:31:00,
2013-01-31 12:41:00,40.0,24.0,-100.00,WNW,300,3.0,6.0,53,-99.99,,,-99.99,,2013-01-31 20:41:00,
2013-01-31 12:52:00,40.0,25.0,-100.00,WNW,300,4.0,6.0,54,-99.99,,,-99.99,,2013-01-31 20:52:00,
2013-01-31 13:02:00,40.0,25.0,-100.00,WNW,300,4.0,6.0,54,-99.99,,,-99.99,,2013-01-31 21:02:00,
2013-01-31 13:21:00,42.0,25.0,-100.00,WNW,300,3.0,6.0,52,-99.99,,,-99.99,,2013-01-31 21:21:00,
2013-01-31 13:31:00,42.0,25.0,-100.00,WNW,300,3.0,6.0,52,-99.99,,,-99.99,,2013-01-31 21:31:00,
2013-01-31 13:42:00,42.0,25.0,-100.00,WNW,300,3.0,6.0,52,-99.99,,,-99.99,,2013-01-31 21:42:00,
2013-01-31 13:52:00,42.0,25.0,-100.00,WNW,300,3.0,6.0,52,-99.99,,,-99.99,,2013-01-31 21:52:00,
2013-01-31 14:22:00,42.0,26.0,-100.00,West,270,1.0,3.0,54,-99.99,,,-99.99,,2013-01-31 22:22:00,
2013-01-31 14:32:00,42.0,26.0,-100.00,WNW,300,0.0,2.0,54,-99.99,,,-99.99,,2013-01-31 22:32:00,
2013-01-31 14:42:00,42.0,26.0,-100.00,WNW,300,0.0,2.0,54,-99.99,,,-99.99,,2013-01-31 22:42:00,
2013-01-31 14:51:00,41.0,27.0,-100.00,WNW,290,1.0,2.0,57,-99.99,,,-99.99,,2013-01-31 22:51:00,
2013-01-31 15:02:00,41.0,27.0,-100.00,WNW,290,1.0,2.0,57,-99.99,,,-99.99,,2013-01-31 23:02:00,
2013-01-31 15:12:00,40.0,27.0,-100.00,West,275,1.0,4.0,59,-99.99,,,-99.99,,2013-01-31 23:12:00,
2013-01-31 15:21:00,40.0,27.0,-100.00,NW,305,0.0,1.0,59,-99.99,,,-99.99,,2013-01-31 23:21:00,
2013-01-31 15:31:00,40.0,27.0,-100.00,NW,305,0.0,1.0,59,-99.99,,,-99.99,,2013-01-31 23:31:00,
2013-01-31 15:41:00,39.0,27.0,-100.00,WNW,295,1.0,1.0,62,-99.99,,,-99.99,,2013-01-31 23:41:00,
2013-01-31 15:52:00,38.0,27.0,-100.00,North,0,0.0,1.0,64,-99.99,,,-99.99,,2013-01-31 23:52:00,
2013-01-31 16:01:00,38.0,27.0,-100.00,North,0,0.0,1.0,64,-99.99,,,-99.99,,2013-02-01 00:01:00,
2013-01-31 16:52:00,35.0,28.0,-100.00,East,95,0.0,1.0,76,-99.99,,,-99.99,,2013-02-01 00:52:00,
2013-01-31 17:01:00,35.0,28.0,-100.00,East,95,0.0,1.0,76,-99.99,,,-99.99,,2013-02-01 01:01:00,
2013-01-31 17:21:00,35.0,28.0,-100.00,East,95,0.0,1.0,76,-99.99,,,-99.99,,2013-02-01 01:21:00,
2013-01-31 17:52:00,33.0,27.0,-100.00,ESE,110,2.0,4.0,81,-99.99,,,-99.99,,2013-02-01 01:52:00,
2013-01-31 18:01:00,33.0,27.0,-100.00,ESE,110,2.0,4.0,81,-99.99,,,-99.99,,2013-02-01 02:01:00,
2013-01-31 18:11:00,32.0,27.0,-100.00,SE,130,3.0,6.0,81,-99.99,,,-99.99,,2013-02-01 02:11:00,
2013-01-31 18:21:00,31.0,27.0,-100.00,SE,125,3.0,6.0,82,-99.99,,,-99.99,,2013-02-01 02:21:00,
2013-01-31 18:31:00,31.0,27.0,-100.00,SE,125,3.0,6.0,82,-99.99,,,-99.99,,2013-02-01 02:31:00,
2013-01-31 18:41:00,31.0,27.0,-100.00,SE,125,3.0,6.0,83,-99.99,,,-99.99,,2013-02-01 02:41:00,
2013-01-31 18:52:00,31.0,27.0,-100.00,SE,135,2.0,6.0,84,-99.99,,,-99.99,,2013-02-01 02:52:00,
2013-01-31 19:01:00,31.0,27.0,-100.00,SE,135,2.0,6.0,84,-99.99,,,-99.99,,2013-02-01 03:01:00,
2013-01-31 19:11:00,31.0,27.0,-100.00,SE,135,2.0,6.0,84,-99.99,,,-99.99,,2013-02-01 03:11:00,
2013-01-31 19:21:00,30.0,26.0,-100.00,SE,125,3.0,7.0,84,-99.99,,,-99.99,,2013-02-01 03:21:00,
2013-01-31 19:32:00,30.0,26.0,-100.00,SE,125,3.0,7.0,84,-99.99,,,-99.99,,2013-02-01 03:32:00,
2013-01-31 19:41:00,30.0,26.0,-100.00,SE,135,3.0,5.0,84,-99.99,,,-99.99,,2013-02-01 03:41:00,
2013-01-31 19:51:00,30.0,26.0,-100.00,ESE,115,1.0,6.0,85,-99.99,,,-99.99,,2013-02-01 03:51:00,
2013-01-31 20:02:00,30.0,26.0,-100.00,ESE,115,1.0,6.0,85,-99.99,,,-99.99,,2013-02-01 04:02:00,
2013-01-31 20:10:00,29.0,25.0,-100.00,ESE,120,2.0,4.0,86,-99.99,,,-99.99,,2013-02-01 04:10:00,
2013-01-31 20:11:00,29.0,25.0,-100.00,SE,130,3.0,4.0,85,-99.99,,,-99.99,,2013-02-01 04:11:00,
2013-01-31 20:21:00,29.0,25.0,-100.00,East,100,1.0,6.0,85,-99.99,,,-99.99,,2013-02-01 04:21:00,
2013-01-31 20:31:00,29.0,25.0,-100.00,ESE,120,2.0,4.0,86,-99.99,,,-99.99,,2013-02-01 04:31:00,
2013-01-31 20:41:00,29.0,25.0,-100.00,ESE,120,2.0,4.0,86,-99.99,,,-99.99,,2013-02-01 04:41:00,
2013-01-31 20:51:00,29.0,25.0,-100.00,ESE,120,2.0,4.0,86,-99.99,,,-99.99,,2013-02-01 04:51:00,
2013-01-31 21:03:00,29.0,25.0,-100.00,ESE,120,2.0,4.0,86,-99.99,,,-99.99,,2013-02-01 05:03:00,
2013-01-31 21:10:00,28.0,24.0,-100.00,East,90,0.0,2.0,86,-99.99,,,-99.99,,2013-02-01 05:10:00,
2013-01-31 21:22:00,28.0,24.0,-100.00,SE,125,2.0,4.0,86,-99.99,,,-99.99,,2013-02-01 05:22:00,
2013-01-31 21:32:00,28.0,24.0,-100.00,East,90,0.0,2.0,86,-99.99,,,-99.99,,2013-02-01 05:32:00,
2013-01-31 21:41:00,28.0,24.0,-100.00,East,90,0.0,2.0,86,-99.99,,,-99.99,,2013-02-01 05:41:00,
2013-01-31 21:52:00,28.0,24.0,-100.00,East,90,0.0,2.0,86,-99.99,,,-99.99,,2013-02-01 05:52:00,
2013-01-31 22:02:00,28.0,24.0,-100.00,East,90,0.0,2.0,86,-99.99,,,-99.99,,2013-02-01 06:02:00,
2013-01-31 22:22:00,27.0,24.0,-100.00,ESE,110,0.0,1.0,86,-99.99,,,-99.99,,2013-02-01 06:22:00,
2013-01-31 22:32:00,27.0,24.0,-100.00,ESE,110,0.0,1.0,86,-99.99,,,-99.99,,2013-02-01 06:32:00,
2013-01-31 22:41:00,27.0,23.0,-100.00,SE,135,2.0,3.0,86,-99.99,,,-99.99,,2013-02-01 06:41:00,
2013-01-31 22:52:00,27.0,23.0,-100.00,SE,135,2.0,3.0,86,-99.99,,,-99.99,,2013-02-01 06:52:00,
2013-01-31 23:01:00,27.0,23.0,-100.00,SE,135,2.0,3.0,86,-99.99,,,-99.99,,2013-02-01 07:01:00,
2013-01-31 23:11:00,27.0,23.0,-100.00,ESE,115,1.0,5.0,87,-99.99,,,-99.99,,2013-02-01 07:11:00,
2013-01-31 23:21:00,27.0,23.0,-100.00,ESE,110,2.0,4.0,87,-99.99,,,-99.99,,2013-02-01 07:21:00,
2013-01-31 23:32:00,27.0,23.0,-100.00,ESE,110,2.0,4.0,87,-99.99,,,-99.99,,2013-02-01 07:32:00,
2013-01-31 23:41:00,26.0,23.0,-100.00,ENE,75,1.0,4.0,87,-99.99,,,-99.99,,2013-02-01 07:41:00,
2013-01-31 23:51:00,26.0,23.0,-100.00,ESE,110,1.0,4.0,87,-99.99,,,-99.99,,2013-02-01 07:51:00,